Hourly Weather Krai

Today, 25 October, Sunday

Time Temperature Precipitation Wind Pressure Humidity
00:00 +7°C° 0 mm 2 mps 746 mmHg 96%
01:00 +7°C° 0 mm 2 mps 746 mmHg 96%
02:00 +7°C° 0 mm 2 mps 746 mmHg 95%
03:00 +7°C° 0 mm 2 mps 747 mmHg 95%
04:00 +8°C° 0 mm 3 mps 747 mmHg 95%
05:00 +8°C° 0 mm 3 mps 747 mmHg 95%
06:00 +8°C° 0 mm 2 mps 747 mmHg 95%
07:00 +8°C° 0 mm 2 mps 747 mmHg 96%
08:00 +8°C° 0 mm 2 mps 748 mmHg 96%
09:00 +9°C° 0 mm 2 mps 748 mmHg 92%
10:00 +10°C° 0 mm 2 mps 748 mmHg 87%
11:00 +13°C° 0 mm 2 mps 749 mmHg 83%
12:00 +13°C° 0 mm 2 mps 749 mmHg 80%
13:00 +14°C° 0 mm 2 mps 749 mmHg 76%
14:00 +15°C° 0 mm 2 mps 749 mmHg 73%
15:00 +14°C° 0 mm 1 mps 749 mmHg 79%
16:00 +12°C° 0 mm 1 mps 749 mmHg 84%
17:00 +11°C° 0 mm 1 mps 748 mmHg 90%
18:00 +11°C° 0 mm 1 mps 749 mmHg 90%
19:00 +11°C° 0 mm 1 mps 749 mmHg 91%
20:00 +10°C° 0 mm 1 mps 750 mmHg 92%
21:00 +10°C° 0 mm 1 mps 750 mmHg 93%
22:00 +10°C° 0 mm 1 mps 750 mmHg 93%
23:00 +10°C° 0 mm 1 mps 750 mmHg 94%

Tomorrow, 26 October, Monday

Time Temperature Precipitation Wind Pressure Humidity
00:00 +10°C° 0 mm 1 mps 750 mmHg 94%
01:00 +8°C° 0 mm 2 mps 750 mmHg 95%
02:00 +8°C° 0 mm 2 mps 750 mmHg 95%
03:00 +8°C° 0 mm 2 mps 750 mmHg 95%
04:00 +8°C° 0 mm 2 mps 750 mmHg 95%
05:00 +8°C° 0 mm 2 mps 750 mmHg 95%
06:00 +8°C° 0 mm 3 mps 750 mmHg 94%
07:00 +8°C° 0 mm 3 mps 750 mmHg 93%
08:00 +8°C° 0 mm 3 mps 750 mmHg 92%
09:00 +10°C° 0 mm 4 mps 750 mmHg 87%
10:00 +11°C° 0 mm 4 mps 749 mmHg 82%
11:00 +12°C° 0 mm 4 mps 749 mmHg 76%
12:00 +12°C° 0 mm 4 mps 749 mmHg 74%
13:00 +13°C° 0 mm 4 mps 749 mmHg 72%
14:00 +13°C° 0 mm 4 mps 749 mmHg 69%
15:00 +12°C° 0 mm 4 mps 749 mmHg 73%
16:00 +11°C° 0 mm 4 mps 748 mmHg 76%
17:00 +11°C° 0 mm 4 mps 748 mmHg 79%
18:00 +10°C° 0 mm 4 mps 748 mmHg 80%
19:00 +10°C° 0 mm 4 mps 748 mmHg 81%
20:00 +10°C° 0 mm 4 mps 749 mmHg 83%
21:00 +8°C° 0 mm 4 mps 749 mmHg 83%
22:00 +8°C° 0 mm 4 mps 749 mmHg 84%
23:00 +8°C° 0 mm 4 mps 749 mmHg 85%

Day after tomorrow, 27 October, Tuesday

Time Temperature Precipitation Wind Pressure Humidity
00:00 +8°C° 0 mm 4 mps 749 mmHg 85%
01:00 +8°C° 0 mm 4 mps 749 mmHg 84%
02:00 +8°C° 0 mm 4 mps 749 mmHg 84%
03:00 +7°C° 0 mm 4 mps 749 mmHg 85%
04:00 +7°C° 0 mm 4 mps 749 mmHg 85%
05:00 +7°C° 0 mm 4 mps 749 mmHg 86%
06:00 +7°C° 0 mm 4 mps 749 mmHg 85%
07:00 +7°C° 0 mm 4 mps 749 mmHg 85%
08:00 +7°C° 0 mm 4 mps 749 mmHg 84%
09:00 +10°C° 0 mm 4 mps 749 mmHg 80%
10:00 +11°C° 0 mm 4 mps 749 mmHg 75%
11:00 +12°C° 0 mm 4 mps 749 mmHg 71%
12:00 +13°C° 0 mm 4 mps 749 mmHg 69%
13:00 +13°C° 0 mm 4 mps 749 mmHg 68%
14:00 +14°C° 0 mm 4 mps 749 mmHg 66%
15:00 +13°C° 0 mm 4 mps 749 mmHg 71%
16:00 +12°C° 0 mm 4 mps 749 mmHg 75%
17:00 +11°C° 0 mm 4 mps 749 mmHg 79%
18:00 +11°C° 0 mm 4 mps 749 mmHg 79%
19:00 +10°C° 0 mm 4 mps 749 mmHg 80%
20:00 +10°C° 0 mm 4 mps 749 mmHg 80%
21:00 +10°C° 0 mm 4 mps 749 mmHg 80%
22:00 +10°C° 0 mm 4 mps 749 mmHg 80%
23:00 +8°C° 0 mm 4 mps 749 mmHg 80%

28 October, Wednesday

Time Temperature Precipitation Wind Pressure Humidity
00:00 +9°C° 0 mm 3 mps 749 mmHg 81%
01:00 +9°C° 0 mm 3 mps 749 mmHg 83%
02:00 +9°C° 0 mm 3 mps 749 mmHg 85%
03:00 +8°C° 0 mm 3 mps 749 mmHg 86%
04:00 +8°C° 0 mm 3 mps 749 mmHg 88%
05:00 +8°C° 0 mm 3 mps 749 mmHg 89%
06:00 +8°C° 0 mm 3 mps 749 mmHg 90%
07:00 +8°C° 0 mm 3 mps 749 mmHg 90%
08:00 +8°C° 0 mm 3 mps 749 mmHg 90%
09:00 +10°C° 0 mm 3 mps 749 mmHg 86%
10:00 +11°C° 0 mm 4 mps 749 mmHg 81%
11:00 +12°C° 0 mm 4 mps 749 mmHg 77%
12:00 +13°C° 0 mm 4 mps 749 mmHg 75%
13:00 +14°C° 0 mm 4 mps 749 mmHg 73%
14:00 +15°C° 0 mm 4 mps 749 mmHg 71%
15:00 +13°C° 0 mm 4 mps 749 mmHg 75%
16:00 +12°C° 0 mm 3 mps 749 mmHg 78%
17:00 +11°C° 0 mm 3 mps 749 mmHg 82%
18:00 +11°C° 0 mm 3 mps 749 mmHg 82%
19:00 +10°C° 0 mm 3 mps 749 mmHg 82%
20:00 +10°C° 0 mm 3 mps 749 mmHg 82%
21:00 +9°C° 0 mm 3 mps 750 mmHg 83%
22:00 +9°C° 0 mm 3 mps 750 mmHg 84%
23:00 +9°C° 0 mm 3 mps 750 mmHg 85%

29 October, Thursday

Time Temperature Precipitation Wind Pressure Humidity
00:00 +8°C° 0 mm 3 mps 750 mmHg 86%
01:00 +8°C° 0 mm 3 mps 749 mmHg 88%
02:00 +7°C° 0 mm 2 mps 749 mmHg 89%
03:00 +7°C° 0 mm 2 mps 749 mmHg 90%
04:00 +7°C° 0 mm 2 mps 749 mmHg 92%
05:00 +6°C° 0 mm 2 mps 749 mmHg 93%
06:00 +6°C° 0 mm 2 mps 749 mmHg 92%
07:00 +5°C° 0 mm 3 mps 749 mmHg 91%
08:00 +7°C° 0 mm 3 mps 749 mmHg 89%
09:00 +8°C° 0 mm 3 mps 749 mmHg 84%
10:00 +9°C° 0 mm 3 mps 749 mmHg 79%
11:00 +10°C° 0 mm 3 mps 749 mmHg 73%
12:00 +11°C° 0 mm 3 mps 749 mmHg 72%
13:00 +12°C° 0 mm 3 mps 749 mmHg 70%
14:00 +13°C° 0 mm 2 mps 749 mmHg 68%
15:00 +12°C° 0 mm 2 mps 749 mmHg 73%
16:00 +12°C° 0 mm 2 mps 749 mmHg 77%
17:00 +10°C° 0 mm 2 mps 749 mmHg 82%
18:00 +9°C° 0 mm 2 mps 749 mmHg 83%
19:00 +9°C° 0 mm 2 mps 749 mmHg 85%
20:00 +9°C° 0 mm 2 mps 749 mmHg 86%
21:00 +8°C° 0 mm 2 mps 749 mmHg 88%
22:00 +8°C° 0 mm 2 mps 749 mmHg 89%
23:00 +8°C° 0 mm 2 mps 749 mmHg 90%

30 October, Friday

Time Temperature Precipitation Wind Pressure Humidity
00:00 +9°C° 0 mm 1 mps 749 mmHg 91%
01:00 +10°C° 0 mm 1 mps 749 mmHg 92%
02:00 +10°C° 0 mm 1 mps 750 mmHg 93%
03:00 +10°C° 0 mm 1 mps 750 mmHg 93%
04:00 +10°C° 0 mm 1 mps 750 mmHg 93%
05:00 +10°C° 0 mm 1 mps 750 mmHg 93%
06:00 +10°C° 0.1 mm 1 mps 750 mmHg 94%
07:00 +10°C° 0.1 mm 1 mps 750 mmHg 95%
08:00 +8°C° 0.1 mm 2 mps 750 mmHg 95%
09:00 +9°C° 0 mm 2 mps 751 mmHg 88%
10:00 +12°C° 0 mm 2 mps 751 mmHg 80%
11:00 +12°C° 0 mm 3 mps 751 mmHg 73%
12:00 +12°C° 0 mm 3 mps 751 mmHg 70%
13:00 +12°C° 0 mm 3 mps 751 mmHg 67%
14:00 +13°C° 0 mm 3 mps 751 mmHg 64%
15:00 +12°C° 0 mm 3 mps 751 mmHg 69%
16:00 +12°C° 0 mm 2 mps 751 mmHg 75%
17:00 +10°C° 0 mm 2 mps 751 mmHg 80%
18:00 +9°C° 0 mm 2 mps 751 mmHg 81%
19:00 +9°C° 0 mm 2 mps 751 mmHg 83%
20:00 +9°C° 0 mm 2 mps 751 mmHg 84%
21:00 +9°C° 0 mm 3 mps 751 mmHg 84%
22:00 +9°C° 0 mm 3 mps 751 mmHg 84%
23:00 +9°C° 0 mm 3 mps 751 mmHg 83%
Show more